Regional Weather Roundup
Issued by NWS

Home | Current Version | Previous Version | Graphics & Text | Print | Product List | Glossary On
Versions: 1 2 3 4 5 6 7 8 9 10 11 12 13 14 15 16 17 18 19 20 21 22 23 24 25 26 27 28 29 30 31 32 33 34 35 36 37 38 39 40 41 42 43 44 45 46 47 48 49 50
895
ASUS43 KDMX 290401
RWRIA

WEATHER ROUNDUP FOR IOWA
NATIONAL WEATHER SERVICE DES MOINES IA
1100 PM CDT TUE MAR 28 2017

NOTE: "FAIR" INDICATES FEW OR NO CLOUDS BELOW 12,000 FEET WITH NO
SIGNIFICANT WEATHER AND/OR OBSTRUCTIONS TO VISIBILITY.

* - THESE STATIONS ARE NOT NWS STATIONS...THUS NOT UNDER NWS
QUALITY CONTROL.  THEY ALSO DO NOT REPORT WEATHER SUCH
AS PRECIPITATION OR FOG.

IAZ001>003-012>014-020>022-031>034-043>046-290500-
   NORTHWEST IOWA

CITY           SKY/WX    TMP DP  RH WIND       PRES   REMARKS
CARROLL *      MOCLDY    46  45  93 NE7       30.12S
CHEROKEE *     CLOUDY    45  42  90 CALM      30.13F
DENISON *      CLOUDY    46  43  87 NE8       30.13S
LE MARS *      CLOUDY    48  43  81 CALM      30.14S
ORANGE CITY *  CLOUDY    46  43  87 CALM      30.12F
SHELDON *      MOCLDY    46  39  76 E3        30.12F
SIOUX CITY     CLOUDY    48  42  80 E5        30.12F
SPENCER        MOCLDY    47  40  76 E5        30.13F
STORM LAKE *   CLOUDY    43  41  93 NE5       30.13F
$$

IAZ055>058-069>071-079>083-090>094-290500-
   SOUTHWEST IOWA

CITY           SKY/WX    TMP DP  RH WIND       PRES   REMARKS
ATLANTIC *     CLOUDY    48  43  81 NE7       30.11R
AUDUBON *      CLOUDY    46  43  87 E6        30.12S
CLARINDA *     CLOUDY    50  46  87 E10       30.10R
COUNCIL BLFS * CLOUDY    48  45  87 NE8G16    30.08S
CRESTON *      CLOUDY    48  45  87 E14       30.10R
HARLAN  *      CLOUDY    48  45  87 E9        30.14R
LAMONI         CLOUDY    50  44  80 E9G17     30.08R
RED OAK *      CLOUDY    48  45  87 NE13      30.08S
SHENANDOAH *   CLOUDY    50  45  81 NE13G18   30.08R
$$

IAZ047>049-059>061-072>074-084-290500-
   CENTRAL IOWA

CITY           SKY/WX    TMP DP  RH WIND       PRES   REMARKS
AMES           CLOUDY    45  44  97 E3        30.13F
ANKENY *       CLOUDY    48  45  87 E6        30.13F
BOONE *        CLOUDY    45  45 100 E7        30.13S
CHARITON *     CLOUDY    48  45  87 E14       30.09F
DES MOINES     CLOUDY    50  45  83 E10       30.12F
GRINNELL*      CLOUDY    47  44  88 E6        30.15F
MARSHALLTOWN   CLOUDY    42  41  96 E6        30.15S
NEWTON *       CLOUDY    48  45  87 E7        30.12F
PELLA *        MOCLDY    48  46  93 E7        30.13F
PERRY *        CLOUDY    48  43  82 E7        30.12F
$$

IAZ004>006-015-016-023>025-035-036-290500-
   NORTH CENTRAL IOWA

CITY           SKY/WX    TMP DP  RH WIND       PRES   REMARKS
ALGONA *       MOCLDY    48  41  76 E5        30.15F
CLARION *      MOCLDY    43  43 100 NE6       30.15F
ESTHERVILLE    MOCLDY    42  40  92 E8        30.15F
FORT DODGE *   CLOUDY    45  37  76 NE5       30.15S
MASON CITY     CLOUDY    46  38  73 SE7       30.18S
FOREST CITY *    N/A     45  36  70 E5        30.17S
WEBSTER CITY * MOCLDY    43  41  93 NE6       30.12S
IOWA FALLS *     N/A     46  42  88 NE5       30.16F
$$

IAZ007>011-017>019-026>030-037>042-050>054-066-290500-
   NORTHEAST IOWA

CITY           SKY/WX    TMP DP  RH WIND       PRES   REMARKS
CEDAR RAPIDS   CLOUDY    39  38  96 E7        30.16S WCI  34
CHARLES CITY * CLOUDY    46  39  76 SE3       30.18F
CLINTON *      CLEAR     37  36  96 NE6       30.20R WCI  32
DECORAH *      CLOUDY    46  39  76 CALM      30.18S
DUBUQUE        CLOUDY    37  35  92 CALM      30.19R
MONTICELLO *   CLOUDY    39  37  93 CALM      30.18S
OELWEIN *      MOCLDY    45  41  87 E6        30.18S
WATERLOO       PTCLDY    40  37  89 E5        30.17S
$$

IAZ064-065-067-068-078-290500-
   EAST CENTRAL IOWA

CITY           SKY/WX    TMP DP  RH WIND       PRES   REMARKS
DAVENPORT      CLOUDY    39  37  92 CALM      30.19R
IOWA CITY      CLOUDY    45  38  76 E6        30.18F
MUSCATINE *    CLOUDY    45  39  81 E3        30.18S
QUAD CITIES    PTCLDY    38  35  89 CALM      30.18R
$$

IAZ062-063-075>077-085>089-095>099-290500-
   SOUTHEAST IOWA

CITY           SKY/WX    TMP DP  RH WIND       PRES   REMARKS
BURLINGTON     CLOUDY    47  42  83 E10       30.15S
FAIRFIELD *    CLOUDY    48  43  81 E12       30.14F
FORT MADISON * CLOUDY    48  46  93 E10       30.15S
KEOKUK *       CLOUDY    50  45  81 E10       30.13F
OSKALOOSA *    CLOUDY    47  45  92 E9        30.13F
CENTERVILLE *  CLOUDY    48  46  93 E12G17    30.11F
OTTUMWA        CLOUDY    49  46  90 E13       30.12F
WASHINGTON *   CLOUDY    45  43  93 E10       30.16F
$$

ABBREVIATIONS USED IN REMARKS
   TC - TEMPERATURES IN CELSIUS
  WCI - WIND CHILL INDEX
   HX - HEAT INDEX
  VSB - VISIBILITY
$$





USA.gov is the U.S. government's official web portal to all federal, state and local government web resources and services.